Wichita, KS

2:00 AM CDT on October 18, 2017 (GMT -0500)
Wichita Eisenhower National Airport

Weather History for KICT - March, 2014

Change the Weather History Date:

Friday, March 7, 2014

  Actual Average Record
Temperature  
Mean Temperature 49 °F 44 °F  
Max Temperature 62 °F 55 °F 78 °F (1974)
Min Temperature 35 °F 32 °F -3 °F (1943)
Degree Days  
Heating Degree Days 16 21  
Month to date heating degree days 271 156  
Since 1 July heating degree days 4190 3796  
Cooling Degree Days 0 0  
Month to date cooling degree days 0 0  
Year to date cooling degree days 0 0  
Moisture  
Dew Point 35 °F    
Average Humidity 67    
Maximum Humidity 92    
Minimum Humidity 42    
Precipitation  
Precipitation 0.00 in 0.08 in 0.38 in (1998)
Month to date precipitation 0.22 0.50  
Year to date precipitation 1.21 2.51  
Snow  
Snow 0.00 in 0.10 in 4.00 in (1969)
Month to date snowfall 3.2 0.6  
Since 1 July snowfall 22.7 13.0  
Snow Depth 0.00 in    
Sea Level Pressure  
Sea Level Pressure 29.87 in    
Wind  
Wind Speed 14 mph (South)    
Max Wind Speed 24 mph    
Max Gust Speed 33 mph    
Visibility 7 miles    
Events      
T = Trace of Precipitation, MM = Missing Value Source: NWS Daily Summary

Daily Weather History Graph

Daily Weather History Graph

Search for Another Location

Airport or City:

Trip Planner

Search our weather history database for the weather conditions in past years. The results will help you decide how hot, cold, wet, or windy it might be!

Date:

Astronomy

Mar. 07, 2014 Rise Set
Actual Time 6:52 AM CST 6:29 PM CST
Civil Twilight 6:26 AM CST 6:55 PM CST
Nautical Twilight 5:56 AM CST 7:25 PM CST
Astronomical Twilight 5:25 AM CST 7:56 PM CST
Moon 10:53 AM CST (3/7) 12:28 AM CST (3/7)
Length of Visible Light 12h 29m
Length of Day
11h 36m
Waxing Crescent, 42% of the Moon is Illuminated
Mar 7
Waxing Crescent
Mar 8
First Quarter
Mar 16
Full
Mar 23
Last Quarter
Mar 30
New

Hourly Weather History & Observations

Time (CST) Temp. Windchill Dew Point Humidity Pressure Visibility Wind Dir Wind Speed Gust Speed Precip Events Conditions
12:53 AM 36.0 °F 28.5 °F 33.1 °F 89% 29.92 in 5.0 mi SSE 10.4 mph - N/A   Clear
1:53 AM 37.9 °F 30.5 °F 33.1 °F 83% 29.91 in 5.0 mi South 11.5 mph - N/A   Haze
2:53 AM 36.0 °F 29.0 °F 32.0 °F 86% 29.89 in 5.0 mi SSE 9.2 mph - N/A   Clear
3:53 AM 37.0 °F 29.8 °F 33.1 °F 86% 29.87 in 4.0 mi South 10.4 mph - N/A   Partly Cloudy
4:53 AM 35.1 °F 26.9 °F 32.0 °F 89% 29.86 in 4.0 mi SSE 11.5 mph - N/A   Partly Cloudy
5:53 AM 36.0 °F 28.0 °F 32.0 °F 86% 29.85 in 4.0 mi SSE 11.5 mph - N/A   Scattered Clouds
6:53 AM 35.1 °F 25.5 °F 32.0 °F 89% 29.85 in 6.0 mi SSE 15.0 mph - N/A   Mostly Cloudy
7:53 AM 37.9 °F 28.5 °F 33.1 °F 83% 29.82 in 6.0 mi SSE 17.3 mph - N/A   Haze
8:53 AM 43.0 °F 35.4 °F 35.1 °F 74% 29.81 in 7.0 mi South 16.1 mph - N/A   Mostly Cloudy
9:53 AM 48.0 °F - 36.0 °F 63% 29.81 in 8.0 mi South 16.1 mph 25.3 mph N/A   Overcast
10:53 AM 51.1 °F - 36.0 °F 56% 29.79 in 8.0 mi South 18.4 mph - N/A   Overcast
11:53 AM 53.1 °F - 37.9 °F 57% 29.80 in 8.0 mi South 18.4 mph 26.5 mph N/A   Overcast
12:53 PM 55.0 °F - 37.9 °F 53% 29.78 in 8.0 mi South 16.1 mph - N/A   Overcast
1:53 PM 55.9 °F - 39.0 °F 53% 29.76 in 7.0 mi South 9.2 mph - N/A   Overcast
2:53 PM 57.9 °F - 37.9 °F 47% 29.76 in 7.0 mi SW 13.8 mph - N/A   Mostly Cloudy
3:53 PM 61.0 °F - 37.9 °F 42% 29.77 in 10.0 mi SSW 16.1 mph - N/A   Mostly Cloudy
4:53 PM 59.0 °F - 37.9 °F 46% 29.79 in 10.0 mi SW 6.9 mph 17.3 mph N/A   Mostly Cloudy
5:53 PM 57.0 °F - 39.0 °F 51% 29.83 in 10.0 mi Calm Calm - N/A   Mostly Cloudy
6:32 PM 53.1 °F - 39.9 °F 61% 29.85 in 10.0 mi North 12.7 mph - N/A   Overcast
6:53 PM 52.0 °F - 39.0 °F 61% 29.87 in 10.0 mi North 12.7 mph - N/A   Overcast
7:53 PM 48.9 °F - 37.0 °F 64% 29.92 in 10.0 mi North 21.9 mph 28.8 mph N/A   Mostly Cloudy
8:53 PM 42.1 °F 32.6 °F 34.0 °F 73% 29.97 in 7.0 mi North 23.0 mph 32.2 mph N/A   Mostly Cloudy
9:47 PM 39.2 °F 29.8 °F 33.8 °F 81% 29.99 in 6.0 mi North 18.4 mph 31.1 mph N/A   Haze
9:53 PM 39.9 °F 30.8 °F 32.0 °F 73% 30.01 in 6.0 mi North 18.4 mph - N/A   Haze
10:53 PM 37.9 °F 30.0 °F 30.9 °F 76% 30.04 in 6.0 mi North 12.7 mph 23.0 mph N/A   Haze
11:53 PM 36.0 °F 25.0 °F 28.9 °F 76% 30.05 in 6.0 mi North 20.7 mph 28.8 mph N/A   Haze